Flag for Germany Weather past 2 weeks in Cottbus, Brandenburg, Germany

Now
38 °F

Overcast.


Feels Like: 33 °F
Forecast: 36 / 41 °F
Wind: 7 mph from West

Location: Cottbus

Current Time: Apr 1, 2015 at 7:36:53 AM

Latest Report: Apr 1, 2015 at 7:00 AM


Visibility: 34 mi

Pressure: 29.59 "Hg

Humidity: 80%

Dew point: 33 °F

Location of CottbusLocation

Historic Weather in Cottbus — Graph

°F

Cottbus temperature yesterday

Maximum temperature yesterday: 53 °F (at 2:00 PM)
Minimum temperature yesterday: 34 °F (at 8:00 AM)
Average temperature yesterday: 43 °F

Past Weeks' High & Low Weather Summary

 TemperatureHumidityPressure
High65 °F (Mar 25, 4:00 PM)99% (Mar 31, 11:00 AM)30.45 "Hg (Mar 31, 11:00 AM)
Low23 °F (Mar 20, 6:00 AM)20% (Mar 18, 4:00 PM)29.12 "Hg (Mar 30, 1:00 AM)
Average44 °F68%29.94 "Hg
* Reported Mar 17 5:00 AM — Apr 1 6:00 AM, Cottbus, Weather by CustomWeather, © 2015

Note: Actual official high and low records may vary slightly from our data, if they occured in-between our weather recording intervals... More about our weather records

Advertising

Cottbus weather history for previous 24 hours

 ConditionsComfort  
Time TempWeatherWind HumidityBarometerVisibility
6:00 AM
Wed, Apr 1
39 °FOvercast.8 mph74%29.56 "Hg34 mi
5:00 AM40 °FOvercast.9 mph72%29.54 "Hg37 mi
4:00 AM40 °FOvercast.8 mph75%29.50 "Hg40 mi
3:00 AM40 °FOvercast.12 mph73%29.50 "Hg40 mi
2:00 AM41 °FOvercast.10 mph72%29.47 "Hg40 mi
1:00 AM41 °FPassing clouds.9 mph74%29.47 "Hg37 mi
12:00 AM42 °FOvercast.10 mph65%29.44 "Hg40 mi
11:00 PM
Tue, Mar 31
44 °FPassing clouds.10 mph60%29.44 "Hg37 mi
10:00 PM44 °FOvercast.12 mph62%29.41 "Hg31 mi
9:00 PM46 °FOvercast.10 mph58%29.38 "Hg25 mi
7:00 PM46 °FOvercast.12 mph72%29.26 "Hg43 mi
6:00 PM49 °FPartly sunny.12 mph63%29.23 "Hg28 mi
5:00 PM51 °FPartly sunny.10 mph60%29.18 "Hg40 mi
4:00 PM47 °FLow clouds.12 mph84%29.18 "Hg15 mi
3:00 PM49 °FLight rain. Low clouds.10 mph79%29.15 "Hg25 mi
2:00 PM53 °FOvercast.10 mph57%29.15 "Hg28 mi
1:00 PM52 °FPartly sunny.8 mph73%29.12 "Hg22 mi
12:00 PM48 °FOvercast.7 mph85%29.12 "Hg43 mi
11:00 AM42 °FLight rain. Low clouds.3 mph99%29.12 "Hg6 mi
10:00 AM38 °FRain. Low clouds.7 mph97%29.15 "Hg2 mi
9:00 AM35 °FLight rain. Low clouds.7 mph97%29.21 "Hg6 mi
8:00 AM34 °FSnow. Low clouds.7 mph97%29.29 "Hg2 mi
7:00 AM38 °FLight freezing rain. Partly sunny.6 mph83%29.41 "Hg5 mi
Weather by CustomWeather, © 2015

See weather overviewHow to use our weather pages